DMSP 5D-2 F13 DEB, 40509

Orbit data source: Space-Track

DMSP 5D-2 F13 DEB, 40509 is space debris in SSO originally from a launch on Fri, 24 Mar 1995 UTC launched from the Air Force Western Test Range (AFWTR). Debris objects in space refer to the collection of defunct objects orbiting the Earth. Examples of debris include non-operational satellites, rocket bodies, and fragments generated from explosions, collisions, or faulty payload assembly.

Loading next visibility...
Identifier
40509, 1995-015CV
Orbit
SSO
Country
Flag of USUS
Related business
Manufacturer
Unknown
Mission
Spacecraft
Bus & Motor
Unknown
Mass
Unknown
Launch date (UTC)
1995-03-24 (31 years ago)
Launch vehicle
Unknown
Launch site
Air Force Western Test Range (AFWTR)
Object type
Payload
Rocket body
Debris
Shape & HBR
Unknown shape, 0.1 m
Radar Cross Section
Small (<0.1 m²)

Expand to show TLE details & history
Last TLE update: 2 weeks ago

TLE from 2 weeks ago
0 DMSP 5D-2 F13 DEB
1 40509U 95015CV  25333.01944996  .00000504  00000-0  24397-3 0  9993
2 40509  98.6563 347.7895 0023156 194.0565 165.9972 14.22668487554187
Epoch: 2025-11-29T00:28Z
TLE epoch observation values (Epoch: 2025-11-29T00:28:00.476Z)
Latitude
0.00004°
Longitude
-87.36616°
Altitude
835.432 km
Speed
7.427 km/s
True Right ascension
23h 11m 09s
True Declination
0° 00' 00"
Sunlit
Object was in daylight at epoch
Visualization orbit readout
Latitude
Unknown
Longitude
Unknown
Altitude
Unknown
Speed
Unknown
Apparent Right ascension
Unknown
Apparent Declination
Unknown
Sunlit
N/A
Visualization observer readout
Local Sidereal Time
05:26:20
Azimuth
Unknown
Elevation
Unknown
Doppler factor
Unknown
Orbital elements
Apogee altitude
830.148 km
Perigee altitude
796.842 km
Semi-major axis
7,191.632 km
Eccentricity
0.00232
Inclination
98.6563°
RAAN
347.7895°
Arg. of periapsis
194.0565°
True anomaly
166.06123°
Mean anomaly
165.9972°
Eccentric anomaly
166.02923°
Mean motion
3.55879 °/min
Orbital period
101.16 mins
BSTAR
0.00024397

Documentation

Showing up to 5 results
|